GFSFLT1_850_dewp_324.txt.gz
Dewpoint
-6 -5 -5 -9 -10 -10 -8 -7 -7 -6 -5 -3 -3 -4 -5 -3 -2 -2 -2 -2 -1 0 -1 -2 -4 -5 -6 -6 -5 -7 -10 -12
-5 -5 -4 -7 -7 -7 -8 -7 -7 -6 -5 -4 -3 -4 -4 -2 -1 -1 -1 -1 -1 -1 -1 -1 -2 -2 -1 -1 -2 -1 -3 -8
-5 -4 -4 -5 -7 -5 -8 -7 -6 -6 -4 -5 -3 -4 -3 -2 -2 -1 -1 -1 -1 0 0 0 0 -0 1 0 0 -0 1 -0
-5 -5 -4 -4 -5 -6 -6 -8 -7 -6 -5 -4 -3 -4 -2 -1 -1 -2 -2 -1 0 1 1 1 1 1 1 1 -0 0 1 1
-6 -5 -4 -4 -4 -5 -4 -7 -9 -8 -4 -3 -4 -3 -3 -2 -1 -1 -0 -0 0 0 -0 -1 -1 -2 -4 -5 -4 -3 -2 -0
-6 -6 -5 -4 -3 -4 -5 -6 -4 -3 -3 -2 -2 -2 -2 -1 0 0 -0 -1 -2 -4 -6 -8 -11 -13 -14 -15 -14 -10 -4 -1
-7 -6 -5 -4 -3 -3 -4 -6 -3 -2 -1 -1 -1 -1 -1 0 0 -1 -2 -4 -6 -9 -12 -12 -15 -18 -21 -22 -20 -19 -17 -9
-7 -6 -5 -4 -3 -3 -3 -4 -3 -2 -2 -1 -1 -1 -0 0 -1 -2 -4 -7 -10 -11 -13 -15 -19 -21 -22 -23 -21 -19 -17 -17
-7 -8 -6 -5 -4 -3 -3 -3 -3 -2 -2 -2 -1 -1 0 -1 -2 -4 -7 -10 -11 -13 -15 -19 -21 -22 -22 -20 -19 -17 -15 -12
-8 -8 -7 -6 -4 -3 -3 -2 -3 -2 -1 -1 -1 0 -0 -2 -4 -7 -10 -11 -13 -15 -18 -19 -20 -19 -18 -18 -18 -18 -17 -13
-8 -8 -7 -6 -4 -3 -2 -2 -2 -1 -1 -0 0 -0 -2 -4 -7 -10 -11 -13 -15 -17 -18 -19 -18 -16 -16 -16 -17 -16 -16 -13
-7 -6 -6 -5 -4 -2 -2 -1 -2 -1 -0 0 -1 -2 -4 -8 -10 -11 -13 -16 -17 -17 -17 -17 -16 -14 -14 -15 -15 -15 -15 -15
-6 -5 -5 -4 -3 -2 -2 -1 -1 0 -0 -2 -3 -5 -8 -10 -11 -14 -16 -17 -17 -16 -16 -16 -14 -14 -14 -14 -13 -14 -15 -16
-4 -4 -3 -2 -2 -2 -1 -0 0 -1 -3 -4 -6 -9 -10 -12 -14 -15 -16 -16 -15 -15 -15 -14 -14 -14 -13 -12 -12 -13 -14 -15
-3 -2 -2 -1 -1 -1 -0 -1 -2 -3 -5 -7 -9 -10 -11 -13 -14 -15 -15 -15 -14 -14 -14 -14 -13 -12 -12 -12 -12 -13 -13 -14
-2 -1 -1 -1 -1 -2 -2 -3 -4 -6 -8 -9 -10 -11 -12 -14 -14 -15 -14 -14 -13 -13 -13 -13 -12 -12 -12 -12 -12 -12 -13 -14
-2 -1 -2 -3 -3 -3 -4 -6 -8 -9 -9 -10 -11 -12 -13 -14 -14 -14 -13 -13 -13 -13 -13 -12 -12 -11 -11 -11 -12 -12 -12 -13
-2 -3 -3 -4 -5 -6 -7 -8 -8 -9 -10 -12 -13 -14 -14 -13 -13 -13 -12 -12 -12 -12 -12 -11 -11 -11 -11 -10 -12 -12 -12 -12
-3 -4 -5 -6 -7 -8 -8 -9 -9 -11 -12 -13 -14 -13 -13 -13 -13 -12 -12 -12 -12 -11 -11 -10 -11 -10 -10 -10 -11 -10 -9 -10

GFSFLT1_850_dewp_327.txt.gz
Dewpoint
-6 -5 -6 -10 -12 -9 -8 -6 -6 -6 -4 -4 -5 -4 -2 -2 -2 -3 -3 -4 -3 -3 -3 -4 -5 -6 -6 -6 -5 -4 -8 -11
-5 -5 -5 -8 -9 -9 -9 -8 -7 -6 -5 -4 -4 -4 -3 -3 -3 -3 -3 -3 -2 -2 -2 -3 -5 -5 -5 -7 -8 -9 -2 -6
-5 -5 -5 -6 -8 -8 -9 -9 -8 -7 -5 -5 -4 -4 -3 -3 -3 -3 -3 -2 -1 -2 -2 -3 -5 -7 -10 -11 -12 -13 -4 -7
-6 -5 -5 -5 -6 -7 -8 -10 -8 -7 -5 -5 -4 -4 -3 -3 -2 -1 -1 -1 -2 -3 -4 -6 -9 -11 -11 -12 -15 -18 -14 -5
-6 -6 -5 -5 -5 -6 -7 -9 -8 -7 -6 -4 -3 -4 -3 -2 -1 -1 -0 -1 -2 -4 -6 -10 -11 -11 -12 -16 -22 -25 -26 -18
-6 -6 -6 -5 -4 -5 -7 -8 -8 -8 -6 -4 -4 -3 -2 -2 -1 0 0 -2 -4 -7 -10 -11 -11 -13 -17 -22 -26 -27 -26 -22
-6 -7 -7 -6 -4 -4 -5 -6 -7 -5 -4 -3 -2 -2 -1 -0 0 0 -1 -3 -6 -10 -11 -12 -14 -18 -22 -24 -25 -25 -22 -20
-5 -6 -7 -6 -5 -4 -4 -4 -5 -3 -2 -1 -1 -0 -0 0 1 -0 -2 -6 -10 -11 -12 -14 -18 -21 -23 -22 -21 -21 -21 -19
-5 -6 -7 -7 -6 -4 -3 -4 -4 -3 -2 -1 -1 -1 0 1 -0 -2 -6 -10 -11 -12 -15 -18 -20 -21 -21 -21 -20 -19 -19 -18
-7 -6 -6 -7 -6 -5 -3 -3 -3 -3 -2 -2 -1 -0 1 -0 -2 -5 -9 -11 -13 -15 -17 -18 -18 -19 -19 -19 -18 -19 -18 -17
-7 -7 -7 -7 -7 -5 -4 -2 -2 -3 -2 -1 -0 0 -0 -2 -5 -9 -11 -13 -15 -17 -17 -17 -17 -18 -17 -17 -17 -18 -17 -15
-7 -7 -7 -6 -6 -5 -4 -2 -2 -2 -2 -0 0 -0 -2 -5 -9 -11 -13 -15 -16 -16 -16 -16 -16 -16 -16 -15 -14 -12 -14 -13
-5 -5 -5 -5 -4 -4 -3 -2 -2 -1 -0 0 -1 -3 -6 -9 -11 -13 -14 -15 -16 -15 -15 -15 -15 -15 -14 -14 -13 -12 -12 -12
-4 -4 -3 -3 -2 -2 -2 -1 -1 -0 0 -2 -4 -7 -10 -11 -13 -14 -15 -15 -15 -14 -14 -14 -13 -13 -13 -12 -12 -12 -10 -11
-3 -2 -1 -1 -1 -1 -1 0 0 -1 -3 -5 -8 -10 -11 -12 -13 -14 -15 -15 -14 -14 -13 -13 -13 -12 -12 -11 -10 -9 -9 -10
-1 -1 -1 -0 0 0 -0 -2 -4 -5 -7 -9 -10 -11 -12 -13 -14 -14 -14 -13 -13 -13 -12 -12 -12 -12 -11 -10 -10 -9 -9 -9
-2 -1 -0 -1 -2 -3 -4 -6 -7 -9 -9 -10 -11 -12 -13 -14 -14 -14 -13 -13 -12 -12 -12 -11 -11 -11 -10 -11 -11 -10 -9 -9
-2 -3 -4 -5 -6 -7 -8 -8 -9 -9 -10 -12 -13 -13 -14 -13 -13 -13 -12 -13 -13 -13 -12 -11 -11 -11 -12 -14 -12 -10 -9 -9
-4 -5 -7 -7 -8 -8 -8 -9 -10 -11 -12 -13 -14 -14 -15 -15 -15 -16 -17 -16 -14 -12 -11 -13 -13 -13 -15 -13 -13 -10 -10 -10

GFSFLT1_850_dewp_333.txt.gz
Dewpoint
-2 -3 -4 -4 -1 1 2 2 2 2 2 2 1 1 1 1 2 1 -2 2 0 3 2 1 -1 0 -0 -0 -2 -1 -2 -1
-1 -3 -3 -4 -1 0 1 1 2 2 2 1 1 1 1 2 3 -2 -3 -4 -5 -6 2 -2 -8 -2 -2 -4 -5 -3 -4 -5
-1 -2 -3 -2 -1 -0 0 -0 2 2 1 0 -0 -0 1 2 3 -3 -3 -3 -3 -1 -7 -8 -10 -7 -7 -10 -9 -8 -5 -6
-2 -3 -2 -1 -2 -0 -1 -1 1 1 -0 -0 0 1 2 2 3 4 -1 -2 -2 -4 -6 -8 -10 -9 -9 -9 -7 -10 -5 -6
-2 -3 -2 -1 -1 -1 -1 -1 -0 1 0 -1 -0 -1 -1 1 3 3 -0 -1 -2 -3 -6 -8 -10 -9 -8 -7 -6 -9 -8 -6
-3 -3 -3 -1 -1 -1 -0 -1 -1 -0 0 0 -0 0 -1 3 3 0 -0 -1 -1 -3 -6 -8 -9 -6 -7 -10 -10 -9 -6 -5
-3 -3 -3 -2 -0 1 1 -0 -1 0 1 2 1 1 1 3 3 3 2 0 -1 -3 -7 -8 -5 -6 -8 -10 -11 -5 -4 -3
-2 -3 -3 -3 -1 1 2 1 -0 0 2 2 2 2 3 4 4 3 2 -0 -2 -3 -6 -5 -5 -6 -7 -6 -6 -5 -5 -4
-2 -2 -3 -3 -2 1 2 1 0 0 2 2 3 3 4 4 4 2 1 -2 -3 -4 -6 -5 -4 -4 -5 -5 -6 -6 -6 -5
-2 -2 -2 -2 -3 -0 2 1 1 0 2 3 3 4 4 3 2 1 -1 -2 -5 -6 -4 -4 -4 -5 -5 -5 -6 -6 -6 -6
-4 -3 -2 -2 -2 -1 2 2 1 1 2 3 4 4 3 2 1 -0 -2 -3 -4 -4 -5 -5 -6 -6 -6 -6 -6 -6 -7 -7
-1 -2 -2 -2 -1 -1 1 3 2 1 3 4 4 3 2 1 -1 -2 -4 -4 -4 -5 -5 -6 -6 -6 -7 -7 -6 -7 -7 -7
1 1 1 -0 0 -0 1 3 2 3 4 3 3 2 0 -1 -3 -4 -4 -4 -5 -5 -6 -6 -7 -7 -7 -7 -7 -8 -8 -8
1 2 1 1 1 1 2 3 4 3 2 2 1 -0 -2 -3 -4 -4 -4 -5 -5 -5 -6 -6 -6 -7 -8 -8 -9 -9 -8 -8
1 2 2 2 2 3 3 3 2 1 -0 -1 -2 -3 -4 -4 -5 -5 -5 -5 -5 -6 -7 -7 -8 -9 -9 -10 -9 -8 -8 -10
1 1 1 1 1 0 -0 -1 -2 -3 -4 -4 -4 -5 -5 -5 -5 -5 -6 -7 -7 -8 -9 -9 -9 -10 -11 -11 -11 -11 -11 -13
-0 -0 -1 -1 -2 -3 -4 -4 -4 -5 -5 -6 -7 -7 -8 -7 -8 -10 -10 -9 -9 -9 -9 -10 -11 -12 -12 -13 -13 -12 -13 -13
-2 -2 -3 -3 -3 -3 -4 -5 -6 -7 -8 -9 -9 -10 -12 -12 -12 -11 -10 -10 -10 -10 -11 -12 -12 -12 -13 -13 -13 -13 -13 -13
-3 -3 -3 -4 -5 -6 -7 -8 -8 -8 -9 -12 -12 -12 -12 -12 -12 -12 -11 -12 -12 -12 -12 -13 -13 -13 -14 -14 -13 -13 -13 -13

GFSFLT1_850_dewp_336.txt.gz
Dewpoint
-0 -3 -4 -4 -1 1 1 1 1 1 2 -2 1 2 2 2 2 -4 1 -1 -4 1 -2 -8 -8 -7 -6 -6 -10 -10 -7 -9
0 -2 -4 -4 -2 1 2 2 2 2 -2 2 2 2 1 2 3 0 -4 -5 -5 -6 -6 -6 -7 -7 -7 -6 -8 -10 -9 -9
0 -2 -3 -3 -2 0 2 2 3 1 2 1 1 1 1 3 4 -3 -4 -4 -3 -3 -4 -5 -6 -8 -7 -6 -8 -10 -10 -8
0 -1 -2 -2 -2 -1 1 1 1 1 2 1 0 1 1 2 2 3 -3 -3 -2 -2 -3 -4 -6 -8 -6 -6 -8 -11 -11 -10
-1 -1 -2 -2 -2 -1 1 0 0 1 0 0 0 1 1 2 3 4 0 -2 -1 -2 -3 -4 -6 -7 -5 -6 -10 -13 -10 -8
-2 -1 -2 -1 -1 -1 -0 -0 -0 1 0 -0 -0 0 0 2 3 3 0 -0 -1 -1 -2 -5 -6 -6 -5 -8 -11 -14 -11 -7
-3 -2 -2 -1 -1 -0 -0 -0 -0 0 1 -1 1 0 0 3 4 3 3 2 0 -1 -2 -4 -5 -5 -5 -8 -9 -12 -9 -6
-4 -2 -2 -2 -1 -0 -0 0 -0 0 0 1 0 1 1 2 4 4 3 2 0 -1 -2 -4 -5 -5 -5 -6 -7 -8 -5 -6
-2 -2 -2 -2 -2 -0 1 2 1 0 1 2 2 2 3 4 4 4 2 0 -2 -3 -3 -5 -5 -5 -5 -5 -5 -5 -6 -6
-2 -2 -2 -2 -2 -1 1 2 2 0 1 2 3 3 4 4 4 4 1 -0 -2 -4 -5 -5 -5 -5 -5 -5 -5 -5 -5 -6
-3 -3 -2 -1 -2 -2 0 2 2 1 1 3 3 4 5 4 3 1 -1 -2 -3 -4 -4 -5 -5 -6 -6 -6 -7 -6 -6 -7
1 -0 -1 -1 -1 -1 -0 2 2 1 2 3 4 4 3 2 0 -1 -2 -3 -4 -5 -5 -5 -6 -6 -6 -6 -7 -7 -7 -8
1 1 0 -1 -0 0 1 3 3 3 4 5 4 3 1 -0 -2 -3 -3 -4 -4 -4 -5 -5 -5 -6 -6 -7 -8 -9 -8 -7
2 2 2 1 1 3 3 3 4 4 4 3 2 0 -2 -3 -3 -4 -4 -4 -4 -4 -5 -6 -7 -8 -9 -9 -9 -9 -10 -11
2 3 3 3 3 4 4 3 2 2 1 0 -1 -2 -3 -4 -4 -4 -5 -6 -8 -8 -8 -9 -9 -9 -9 -10 -12 -13 -13 -13
2 2 2 2 2 1 1 0 -1 -2 -2 -3 -4 -5 -5 -6 -7 -10 -10 -10 -9 -9 -8 -9 -10 -11 -11 -12 -12 -13 -14 -16
1 0 -0 -1 -1 -2 -3 -4 -4 -4 -5 -6 -7 -8 -10 -11 -12 -11 -10 -10 -10 -10 -10 -11 -12 -12 -12 -12 -13 -14 -15 -13
-1 -2 -2 -3 -3 -3 -4 -5 -6 -7 -8 -9 -11 -12 -12 -11 -12 -12 -11 -11 -11 -11 -12 -12 -13 -13 -13 -14 -14 -13 -13 -14
-2 -2 -2 -3 -4 -5 -6 -7 -7 -9 -11 -11 -11 -12 -12 -12 -12 -12 -11 -12 -12 -12 -13 -13 -14 -13 -14 -12 -11 -12 -13 -14

GFSFLT1_850_dewp_342.txt.gz
Dewpoint
3 2 -1 -3 -3 -2 -5 -10 -7 -3 -1 -0 1 1 1 0 -4 -7 -7 -5 -5 -5 -4 -3 -3 -3 -3 -3 -3 -3 -3 -4
3 2 -1 -3 -3 -3 -3 -7 -4 -4 -2 -1 1 2 1 2 1 -7 -7 -5 -4 -4 -3 -3 -3 -3 -3 -3 -3 -3 -3 -3
2 -0 -2 -3 -3 -3 -3 -4 -6 -7 -3 -4 -0 1 2 2 1 -3 -7 -5 -3 -3 -3 -3 -3 -3 -3 -3 -3 -4 -5 -7
1 -2 -3 -3 -3 -3 -3 -3 -5 -6 -6 -1 1 2 2 2 2 2 -3 -5 -3 -2 -2 -2 -2 -3 -3 -4 -5 -4 -5 -9
2 -2 -3 -3 -3 -3 -3 -3 -3 -4 -6 1 2 2 2 1 2 2 2 1 0 -1 -1 -1 -2 -2 -3 -5 -5 -6 -7 -8
3 1 -0 -3 -3 -3 -3 -2 -2 -2 -3 1 2 1 2 1 2 1 3 3 2 1 0 -1 -1 -2 -4 -5 -6 -6 -7 -8
4 1 -2 -3 -3 -3 -2 -1 -1 -1 -1 -0 2 1 1 0 2 2 3 3 3 2 1 -1 -2 -4 -5 -6 -6 -6 -6 -6
3 0 -1 -2 -3 -3 -2 -2 -1 -1 -1 -0 1 1 0 0 2 3 4 4 2 1 0 -2 -4 -4 -5 -6 -6 -5 -5 -4
1 0 -0 -2 -2 -2 -2 -2 -1 -1 -0 -0 0 1 2 3 4 4 4 3 2 -0 -3 -3 -4 -5 -6 -6 -5 -5 -5 -6
0 -0 -1 -1 -2 -2 -2 -1 -1 -1 -0 1 1 0 2 4 4 4 2 0 -1 -1 -3 -3 -4 -5 -5 -5 -5 -6 -6 -7
-0 -0 -0 -1 -2 -2 -1 -1 -0 -0 0 1 1 2 3 4 3 3 2 1 -2 -2 -3 -4 -5 -5 -5 -5 -6 -7 -8 -9
-1 -2 -1 -0 -0 -1 -0 -0 -0 1 1 2 2 3 3 3 2 1 2 -0 -2 -3 -4 -4 -5 -6 -8 -9 -9 -9 -10 -11
-1 0 -1 -0 1 1 1 0 1 2 3 3 3 4 3 3 2 1 -0 -2 -3 -4 -5 -9 -12 -11 -10 -10 -10 -11 -12 -13
2 3 3 4 4 3 2 2 3 3 4 4 4 3 3 1 -1 -2 -3 -5 -7 -12 -13 -13 -11 -11 -13 -12 -12 -12 -13 -15
3 4 4 4 4 4 4 4 4 4 4 4 3 1 -0 -2 -3 -5 -8 -13 -13 -13 -15 -13 -13 -13 -13 -13 -13 -14 -13 -12
3 4 4 4 4 4 4 4 4 3 3 1 -1 -3 -4 -6 -9 -13 -15 -16 -17 -17 -15 -13 -13 -13 -14 -13 -13 -12 -12 -13
2 2 2 2 2 2 2 1 0 -1 -1 -3 -5 -7 -9 -12 -16 -18 -18 -21 -19 -14 -13 -13 -14 -14 -13 -13 -12 -13 -13 -15
1 1 0 -0 -1 -1 -1 -2 -3 -4 -5 -7 -9 -12 -16 -19 -19 -21 -21 -18 -15 -14 -14 -14 -14 -13 -13 -13 -13 -13 -15 -15
0 -1 -2 -3 -3 -3 -4 -5 -5 -7 -8 -11 -16 -19 -21 -22 -21 -22 -18 -15 -14 -14 -14 -14 -13 -13 -13 -13 -14 -15 -16 -15

GFSFLT1_850_dewp_345.txt.gz
Dewpoint
7 2 -1 -2 -2 -2 -3 -13 -14 -9 -5 -2 -0 -0 -1 -4 -6 -8 -6 -4 -5 -5 -4 -3 -3 -3 -3 -3 -3 -2 -2 -2
6 0 -1 -1 -2 -2 -3 -10 -14 -10 -7 -2 -0 -0 -1 -2 -1 -2 -7 -5 -4 -4 -3 -3 -3 -3 -3 -3 -2 -2 -2 -2
3 -1 -1 -1 -2 -2 -2 -5 -9 -10 -7 -3 -2 -0 -0 0 1 1 -6 -6 -3 -3 -3 -2 -2 -3 -2 -2 -3 -3 -4 -4
4 2 1 -1 -2 -2 -2 -3 -5 -8 -6 -3 -1 1 1 1 1 2 2 -1 -3 -2 -2 -1 -2 -2 -2 -2 -3 -4 -5 -6
6 3 2 -0 -2 -2 -2 -2 -3 -5 -6 -5 -3 -0 1 0 1 2 3 1 1 2 1 0 -1 -1 -2 -3 -4 -5 -6 -6
6 5 5 1 -2 -2 -3 -2 -2 -2 -4 -5 -0 1 1 2 2 2 3 3 3 2 2 1 0 -1 -3 -4 -5 -6 -6 -6
6 6 3 0 -2 -2 -2 -2 -2 -1 -1 -4 0 1 1 2 2 2 3 4 3 3 2 1 -1 -3 -3 -4 -5 -6 -6 -6
5 5 4 0 -2 -2 -2 -2 -2 -1 0 -1 1 1 1 2 2 2 3 3 4 2 -0 -2 -3 -3 -3 -5 -5 -5 -5 -5
4 4 3 1 -2 -3 -3 -2 -1 -0 1 1 1 2 2 1 2 3 4 4 3 1 -1 -2 -3 -3 -4 -5 -5 -5 -6 -6
2 2 1 0 -2 -3 -3 -2 -1 0 0 1 1 2 1 2 3 4 4 4 2 -1 -1 -2 -0 -3 -5 -5 -6 -8 -9 -10
0 0 -0 -1 -1 -2 -2 -1 -0 0 1 1 1 1 2 3 4 4 3 0 -2 -0 -0 -3 -4 -5 -8 -12 -12 -12 -11 -11
-0 -0 -0 -0 -1 -1 -1 -0 0 1 1 2 2 2 3 4 3 1 -1 -0 1 -3 -4 -6 -10 -13 -14 -14 -14 -13 -13 -14
-2 -2 -1 -1 0 0 0 0 0 1 1 2 3 3 2 1 1 0 1 -2 -5 -7 -10 -13 -16 -18 -17 -15 -14 -13 -14 -15
-2 -1 -1 1 2 2 2 1 1 2 2 3 3 2 1 0 -0 -1 -5 -8 -11 -13 -17 -22 -22 -18 -15 -14 -14 -14 -15 -14
3 3 3 3 3 3 2 2 2 3 3 3 2 1 0 -1 -4 -7 -10 -13 -18 -23 -24 -21 -17 -16 -15 -15 -14 -14 -14 -14
4 4 4 4 3 3 3 3 3 3 3 2 1 -0 -2 -5 -9 -13 -18 -23 -27 -24 -20 -18 -17 -16 -15 -14 -14 -14 -15 -16
4 4 4 3 3 3 3 3 3 2 2 -0 -3 -5 -8 -12 -17 -23 -28 -28 -25 -21 -18 -16 -16 -15 -14 -14 -14 -15 -16 -16
3 4 4 3 3 3 3 2 0 -2 -3 -5 -8 -11 -16 -22 -27 -29 -29 -25 -20 -18 -17 -16 -16 -16 -15 -15 -16 -16 -16 -15
2 3 2 2 1 0 -1 -2 -4 -5 -6 -8 -13 -19 -25 -29 -29 -29 -23 -20 -18 -18 -18 -17 -16 -16 -15 -15 -16 -17 -15 -14

GFSFLT1_850_dewp_348.txt.gz
Dewpoint
6 7 7 6 0 -1 -3 -8 -10 -7 -5 -5 -6 -6 -7 -7 -7 -6 -4 -3 -5 -5 -4 -3 -3 -3 -3 -3 -2 -2 -2 -2
6 7 6 5 -1 -1 -2 -6 -10 -10 -6 -5 -4 -3 -3 -3 -2 -4 -6 -5 -4 -4 -3 -3 -3 -2 -2 -2 -2 -2 -2 -2
7 7 6 3 -1 -1 -1 -5 -11 -12 -7 -6 -3 -3 -2 -0 1 1 -5 -6 -4 -3 -3 -1 -1 -2 -2 -2 -2 -2 -2 -3
6 7 6 1 -1 -1 -1 -3 -8 -9 -6 -4 -2 -1 0 0 1 2 2 1 -2 -2 2 1 1 1 0 0 -0 -1 -3 -5
6 6 5 2 -0 -1 -1 -2 -4 -5 -6 -4 -3 -4 -2 -1 1 2 2 3 1 3 2 2 2 1 1 -1 -2 -2 -4 -5
5 5 5 3 0 -0 -1 -2 -2 -3 -4 -4 -2 -1 0 1 1 2 3 3 3 3 2 2 2 1 -1 -3 -4 -5 -5 -5
5 5 6 4 2 -0 -1 -1 -2 -2 -2 -4 -3 -1 1 2 2 2 3 3 3 3 2 2 1 -2 -3 -1 -3 -5 -5 -5
5 5 5 5 4 1 -1 -1 -2 -1 -0 -1 -3 0 1 2 2 3 3 3 4 3 2 -1 -2 -3 0 -2 -5 -5 -6 -7
5 5 5 5 4 1 -1 -1 -1 -1 0 0 -1 1 2 2 2 3 4 4 3 2 0 -1 -1 -0 -3 -5 -6 -9 -12 -12
0 3 4 4 3 2 -1 -1 -1 -1 1 1 1 1 2 2 2 3 4 4 2 0 -1 1 0 -4 -6 -10 -13 -15 -15 -15
0 1 1 1 0 0 -1 -1 -1 -0 1 2 2 1 2 2 2 3 4 3 2 -1 2 -0 -4 -9 -14 -17 -18 -17 -17 -18
0 0 -0 -0 -1 -1 -1 -0 0 0 2 2 2 2 2 2 3 4 3 0 0 2 -2 -7 -13 -18 -20 -18 -16 -17 -17 -16
0 -0 -0 -0 -0 -0 0 0 1 2 2 2 2 2 3 3 2 1 -0 1 1 -6 -12 -18 -22 -20 -18 -17 -16 -16 -16 -16
-2 -2 -2 0 1 1 1 2 2 2 2 2 2 3 2 2 1 1 2 -4 -11 -16 -22 -23 -21 -18 -17 -16 -15 -16 -17 -16
-0 -0 0 2 2 2 2 2 2 2 2 2 2 2 1 1 0 -1 -7 -14 -21 -25 -24 -21 -19 -18 -16 -16 -17 -17 -17 -17
2 2 2 3 3 2 2 2 2 2 2 2 1 1 1 -0 -4 -11 -18 -26 -26 -24 -22 -21 -21 -19 -18 -17 -17 -17 -17 -17
3 3 3 3 3 2 2 2 2 2 2 2 1 0 -3 -9 -15 -23 -28 -27 -25 -24 -23 -23 -21 -20 -18 -17 -17 -17 -17 -16
3 3 3 3 2 2 2 2 2 2 1 0 -3 -7 -12 -18 -26 -29 -29 -27 -25 -24 -24 -23 -21 -19 -18 -18 -18 -18 -16 -15
3 3 3 2 2 2 2 2 1 -1 -3 -5 -8 -13 -20 -29 -31 -31 -28 -25 -24 -25 -24 -21 -19 -18 -18 -18 -18 -18 -16 -15

GFSFLT1_850_dewp_351.txt.gz
Dewpoint
7 7 7 7 5 0 -3 -8 -6 -4 -4 -7 -5 -6 -5 -4 -3 -2 -3 -4 -5 -4 -3 -3 -3 -2 -3 -2 -2 -1 -0 -2
7 7 7 7 6 1 -2 -5 -7 -5 -5 -6 -6 -7 -6 -5 -5 -5 -5 -5 -4 -4 -3 -2 1 -0 1 1 1 1 0 -0
7 6 7 7 6 3 -2 -3 -7 -7 -6 -4 -3 -3 -2 -1 -0 -0 -4 -5 -4 -4 -2 2 2 2 2 1 1 -0 -1 -2
6 6 6 7 6 3 -1 -2 -6 -8 -6 -2 -1 -1 -0 0 1 1 1 1 0 -2 2 3 3 2 1 1 -1 -0 -1 -3
6 6 6 6 6 3 -1 -1 -5 -8 -7 -4 -2 -3 -2 -1 1 2 2 3 2 2 3 2 2 1 1 -1 0 1 -3 -4
6 5 5 6 6 3 -1 -1 -4 -6 -5 -4 -3 -1 -1 0 1 2 2 3 3 3 2 1 1 1 -0 -0 1 -1 -5 -5
6 6 6 6 5 2 -1 -1 -2 -4 -3 -3 -2 -2 -1 1 2 2 2 3 3 3 2 1 0 -0 -0 1 -2 -5 -6 -8
5 5 5 6 5 3 -0 -1 -1 -2 -2 -2 -2 -1 -0 2 2 3 3 3 3 3 2 1 0 -0 1 -3 -5 -8 -13 -16
5 5 5 5 5 3 0 -0 -1 -1 -1 -1 -1 -1 0 2 2 3 3 4 3 2 0 -0 -1 0 -3 -5 -11 -16 -20 -20
4 5 5 5 5 4 2 0 -1 -1 -1 0 0 -1 0 2 2 2 3 3 3 2 0 1 1 -3 -7 -14 -20 -21 -21 -22
0 2 3 3 3 3 2 0 -0 -0 -0 1 1 0 1 2 2 2 3 3 2 1 1 1 -4 -9 -17 -22 -22 -22 -22 -20
0 0 0 0 0 0 1 1 0 0 0 1 1 1 1 2 2 3 3 3 1 1 1 -6 -13 -22 -23 -22 -22 -21 -19 -19
1 0 -0 -0 -0 -0 0 1 1 1 1 1 2 2 2 2 3 3 2 1 1 -1 -9 -18 -25 -24 -23 -22 -20 -19 -19 -18
-0 0 0 -0 -0 0 1 1 2 2 1 2 2 2 2 2 2 1 1 1 -3 -13 -23 -27 -25 -23 -21 -20 -19 -19 -18 -17
-0 -1 -1 -0 1 1 1 2 2 2 2 3 2 2 2 1 1 1 0 -5 -17 -27 -28 -25 -24 -22 -20 -20 -19 -18 -18 -17
0 -1 -1 0 1 2 2 2 3 3 3 2 2 1 1 1 1 -2 -11 -21 -29 -28 -26 -25 -24 -21 -20 -19 -18 -18 -18 -17
1 0 0 1 2 2 2 2 2 2 2 2 1 1 1 -0 -7 -15 -25 -31 -29 -27 -26 -25 -23 -21 -19 -19 -19 -19 -19 -17
1 1 1 2 2 2 2 2 2 1 1 1 1 0 -4 -10 -18 -28 -31 -29 -27 -26 -25 -25 -21 -19 -19 -19 -19 -19 -18 -17
1 1 2 2 2 2 2 1 1 1 1 1 -2 -7 -13 -20 -29 -31 -30 -28 -26 -27 -25 -22 -20 -19 -19 -19 -19 -19 -18 -16